Retour au catalogue

CZ-6A DEB

ActifSSO
NORAD 54402·DEBRIS·🇨🇳 China

Lancé Nov 11, 2022 depuis Taiyuan Satellite Launch Center

Loading…

Prochains Passages (prochaines 24 heures)

TLE

FraisSource: Space-Track

Époque: Sep 14, 2026, 07:55 UTC

1 54402U 22151EA  26257.33032386  .00001500  00000-0  76927-3 0  9996
2 54402  98.7238 225.1004 0144456  11.3587 349.0787 14.11617643196993

Suivez CZ-6A DEB en temps réel avec AllMySat

Download on the App Store